Regional Weather Roundup
Issued by NWS

Home | Current Version | Previous Version | Graphics & Text | Print | Product List | Glossary On
Versions: 1 2 3 4 5 6 7 8 9 10 11 12 13 14 15 16 17 18 19 20 21 22 23 24 25 26 27 28 29 30 31 32 33 34 35 36 37 38 39 40 41 42 43 44 45 46 47 48 49 50
000
ASUS43 KDTX 271510
RWRMI
MICHIGAN HOURLY REGIONAL WEATHER ROUNDUP
NATIONAL WEATHER SERVICE DETROIT/PONTIAC MI
1100 AM EDT MON MAR 27 2017

NOTE: "FAIR" INDICATES FEW OR NO CLOUDS BELOW 12,000 FEET WITH NO
SIGNIFICANT WEATHER AND/OR OBSTRUCTION TO VISIBILITY.

MIZ047>049-052>055-059>063-066>070-074>076-081>083-271600-
SOUTHEAST LOWER MICHIGAN

CITY           SKY/WX    TMP DP  RH WIND       PRES   REMARKS
ADRIAN         CLOUDY    53  50  89 W9        29.95R
ALMA           CLOUDY    46  44  93 SW12G21   29.93R
ANN ARBOR      CLOUDY    54  50  86 MISG      29.93R
BAD AXE        CLOUDY    50  50 100 W6        29.89R FOG
CARO           CLOUDY    53  50  90 SW10      29.89S
DETROIT CITY   CLOUDY    56  53  90 W8        29.92F
DETROIT        CLOUDY    56  52  86 W10       29.94S
FLINT          CLOUDY    52  49  89 W8        29.92R
GROSSE ILE     CLOUDY    54  51  87 W10       29.93S
HILLSDALE      CLOUDY    50  46  87 SW9       29.94R
HOWELL         CLOUDY    53  48  83 W9        29.92R

CITY           SKY/WX    TMP DP  RH WIND       PRES   REMARKS
JACKSON        CLOUDY    53  50  89 W8        29.93R
LAMBERTVILLE   CLOUDY    55  49  80 SW8       29.95R
LANSING        CLOUDY    48  44  86 W10       29.93R FOG
LAPEER         CLOUDY    54  50  89 W10G20    29.91R
MASON          CLOUDY    52  49  90 W7        29.93R
MONROE         CLOUDY    55  52  91 W6        29.93S
MT. CLEMENS    CLOUDY    55  55 100 SW9       29.90R
PONTIAC        CLOUDY    53  49  86 W10       29.91R
PORT HOPE        N/A     50  48  93 SW7       29.86R
PORT HURON     CLOUDY    54  50  87 SW7       29.91S FOG
TRI CITIES     CLOUDY    49  47  93 W13       29.91R
MIDLAND        CLOUDY    47  46  97 W7        29.89S
TROY           CLOUDY    54  51  89 SW7       29.93S
SAGINAW HB     CLOUDY    50  45  81 SW9       29.89S
$$
MIZ043>046-050>051-056>058-064>065-071>073-077>080-271600-
SOUTHWEST LOWER MICHIGAN

CITY           SKY/WX    TMP DP  RH WIND       PRES   REMARKS
BATTLE CREEK   CLOUDY    49  49 100 W8        29.95R
BENTON HARBOR  CLOUDY    44  42  93 CALM      29.97R FOG
BIG RAPIDS     CLOUDY    39  38  97 W6        29.93R FOG     WCI  34
COLDWATER      CLOUDY    51  51 100 SW8       29.95R FOG
FREMONT        CLOUDY    38  38 100 NW7       29.95R FOG     WCI  33
HOLLAND        CLOUDY    42  38  85 NW5       29.97R
GRAND RAPIDS   CLOUDY    43  42  97 W8        29.94R
IONIA          CLOUDY    44  42  93 W8        29.93R
KALAMAZOO      CLOUDY    49  45  86 W7        29.96R
LUDINGTON      CLOUDY    38  37  99 CALM      29.95R
MARSHALL       LGT RAIN  51  50  98 W6        29.93R
MOUNT PLEASANT CLOUDY    44  43  97 W8        29.91R
MUSKEGON       CLOUDY    41  38  89 NW6       29.97R
SOUTH HAVEN    CLOUDY    43  42  99 CALM      29.96F
$$
MIZ016>042-271600-
NORTHERN LOWER MICHIGAN

CITY           SKY/WX    TMP DP  RH WIND       PRES   REMARKS
ALPENA         CLOUDY    42  42 100 N7        29.87R
BEAVER ISLAND  CLOUDY    35  35 100 NW5       29.93R WCI  31
BELLAIRE       CLOUDY    36  35  96 W3        29.93R FOG
CADILLAC       CLOUDY    37  36  96 W6        29.90R FOG     WCI  32
CHARLEVOIX     CLOUDY    36  36 100 NW8       29.95R WCI  29
FRANKFORT      CLOUDY    37  34  91 N5        29.94R WCI  33
GAYLORD        FOG       37  34  89 NW5       29.87R VSB 3/4 WCI  33
GRAYLING       CLOUDY    37  37 100 W7        29.90R FOG     WCI  32
HARBOR SPRINGS CLOUDY    34  34  99 CALM      29.91R
HOUGHTON LAKE  CLOUDY    41  40  96 W7        29.89R FOG
MANISTEE       CLOUDY    37  36  96 NW7       29.94R WCI  32
OSCODA         CLOUDY    46  45  97 W3        29.87R FOG
PELLSTON       CLOUDY    37  34  89 NW9       29.90R WCI  30
ROGERS CITY    CLOUDY    37  36  95 NW7         N/A  WCI  32
TRAVERSE CITY  CLOUDY    38  35  89 NW6       29.93R FOG     WCI  33
$$
MIZ007>008-015-271600-
EASTERN UPPER MICHIGAN

CITY           SKY/WX    TMP DP  RH WIND       PRES   REMARKS
KINROSS        CLOUDY    35  35 100 NW12      29.88S FOG     WCI  27
MACKINAC ISLAN CLOUDY    34  34 100 NW6       29.88S FOG     WCI  29
NEWBERRY       CLOUDY    34  33  96 NW5       29.91R WCI  29
S. S. MARIE    LGT RAIN  37  34  89 NW7       29.88S WCI  32
MUNISING         N/A     34  34 100 NW9       29.94R WCI  27
$$
MIZ004>006-011>014-085-271600-
CENTRAL UPPER MICHIGAN

CITY           SKY/WX    TMP DP  RH WIND       PRES   REMARKS
MANISTIQUE     CLOUDY    36  34  93 N5        29.93R WCI  32
ESCANABA       CLOUDY    37  34  89 N5        29.94S WCI  33
MENOMINEE        N/A    N/A N/A N/A MISG        N/A
SAWYER-GWINN   CLOUDY    32  32 100 N8        29.93R FOG     WCI  25
$$
MIZ001>003-009>011-084-271600-
WESTERN UPPER MICHIGAN

CITY           SKY/WX    TMP DP  RH WIND       PRES   REMARKS
IRON MOUNTAIN  CLOUDY    37  32  82 N8        29.92R WCI  31
HOUGHTON       FOG       33  32  96 NW9       29.94R VSB<1/4 WCI  25
COPPER HARBOR    N/A     34  32  92 N12       29.95R WCI  25
IRONWOOD       CLOUDY    36  36 100 CALM      29.96S
$$

ABBREVIATIONS USED IN REMARKS
   TC - TEMPERATURE IN CELSIUS
  WCI - WIND CHILL INDEX
   HX - HEAT INDEX
  VSB - VISIBILITY





USA.gov is the U.S. government's official web portal to all federal, state and local government web resources and services.